EW6511 Weather Reports


Display with metric or nautical units.
time (UTC)temp
F
wind
direction
speed
MPH
gust
MPH
rain 1hr
in
rain 24hr
in
rain mn
in
humidity
%
barometer
mb
20260508043206 0 0.0 0.0 0.00 0.00 0.00 1016.5
20260508042116 0 0.0 0.0 0.00 0.00 0.00 1016.4
20260508041112 0 0.0 0.0 0.00 0.00 0.00 1016.4
20260508035106 0 0.0 0.0 0.00 0.00 0.00 1016.5
20260508034014 0 0.0 0.0 0.00 0.00 0.00 1016.3
20260508033013 0 0.0 0.0 0.00 0.00 0.00 1016.4
20260508031012 0 0.0 0.0 0.00 0.00 0.00 1016.3
20260508030004 0 0.0 0.0 0.00 0.00 0.00 1016.4
20260508023910 0 0.0 0.0 0.00 0.00 0.00 1016.4
20260508022816 0 0.0 0.0 0.00 0.00 0.00 1016.3
20260508021800 0 0.0 0.0 0.00 0.00 0.00 1016.2
20260508020706 0 0.0 0.0 0.00 0.00 0.00 1016.2
20260508015614 0 0.0 0.0 0.00 0.00 0.00 1016.0
20260508014613 44 0.0 0.0 0.00 0.00 0.00 72 1015.8
20260508012518 44 119 0.0 0.0 0.00 0.00 0.00 72 1015.8
20260508011519 45 119 1.0 2.0 0.00 0.00 0.00 72 1015.8
20260508010519 45 119 1.0 2.0 0.00 0.00 0.00 71 1016.0
20260508005518 46 119 0.0 2.0 0.00 0.00 0.00 71 1016.0
20260508004521 46 119 2.0 3.0 0.00 0.00 0.00 72 1016.1
20260508003521 46 119 3.0 4.0 0.00 0.01 0.00 72 1016.1
20260508002521 0 0.0 0.0 0.00 0.01 0.00 1016.2
20260508000458 45 65 0.0 2.0 0.00 0.01 0.00 70 1016.3
20260507235437 45 65 0.0 2.0 0.00 0.02 0.00 70 1016.2
20260507234424 46 65 0.0 2.0 0.00 0.02 0.00 70 1016.2
20260507233424 46 65 0.0 0.0 0.00 0.02 0.00 70 1016.3
20260507232423 46 65 0.0 0.0 0.00 0.03 0.00 70 1016.4
20260507231422 46 65 1.0 3.0 0.00 0.03 0.00 69 1016.4
20260507230423 47 65 1.0 3.0 0.00 0.04 0.00 69 1016.4
20260507225422 47 65 1.0 2.0 0.00 0.04 0.00 69 1016.5
20260507224422 47 65 0.0 2.0 0.00 0.04 0.00 68 1016.5
20260507223424 48 65 1.0 2.0 0.00 0.05 0.00 67 1016.4
20260507222423 49 65 2.0 2.0 0.00 0.05 0.00 68 1016.4
20260507221416 48 65 2.0 3.0 0.00 0.05 0.00 69 1016.5
20260507220418 48 65 2.0 3.0 0.00 0.05 0.00 68 1016.5
20260507215416 50 65 2.0 6.0 0.00 0.05 0.05 66 1016.4
20260507214416 49 96 2.0 3.0 0.00 0.05 0.05 68 1016.5
20260507213416 49 96 3.0 6.0 0.00 0.05 0.05 67 1016.6
20260507211416 50 65 3.0 5.0 0.00 0.05 0.05 66 1016.5
20260507210416 50 70 3.0 5.0 0.00 0.05 0.05 66 1016.5
20260507205418 51 71 3.0 7.0 0.00 0.05 0.05 66 1016.5
20260507203410 51 56 4.0 6.0 0.00 0.05 0.05 66 1016.4
20260507202411 51 59 4.0 9.0 0.00 0.05 0.05 67 1016.2
20260507201412 51 46 4.0 6.0 0.00 0.05 0.05 67 1016.2
20260507200412 51 64 4.0 6.0 0.00 0.05 0.05 67 1016.2
20260507195410 51 36 4.0 5.0 0.00 0.05 0.05 67 1016.2
20260507194411 52 62 4.0 5.0 0.00 0.05 0.05 66 1016.0
20260507193409 52 59 3.0 6.0 0.00 0.05 0.05 66 1015.8
20260507192411 53 62 4.0 5.0 0.00 0.05 0.05 66 1015.7
20260507191407 53 63 4.0 5.0 0.00 0.05 0.05 65 1015.8
20260507185410 54 72 3.0 5.0 0.00 0.05 0.05 64 1015.6
20260507184408 55 59 3.0 5.0 0.00 0.05 0.05 64 1015.5
20260507183410 55 21 3.0 6.0 0.00 0.05 0.05 63 1015.5
20260507182409 55 43 3.0 5.0 0.00 0.05 0.05 63 1015.5
20260507180407 56 37 4.0 6.0 0.00 0.05 0.05 59 1015.4
20260507175403 56 18 5.0 8.0 0.00 0.05 0.05 59 1015.3
20260507173404 57 13 5.0 9.0 0.00 0.05 0.05 58 1015.2
20260507171403 58 355 4.0 9.0 0.00 0.05 0.05 54 1015.2
20260507165403 60 355 4.0 9.0 0.00 0.05 0.05 50 1015.0
20260507164402 60 293 3.0 8.0 0.00 0.05 0.05 48 1014.9
20260507163402 59 298 5.0 10.0 0.00 0.05 0.05 49 1015.1
20260507162403 60 310 3.0 10.0 0.00 0.05 0.05 49 1015.0
20260507161402 60 293 4.0 8.0 0.00 0.05 0.05 50 1015.0
20260507155402 60 313 7.0 13.0 0.00 0.05 0.05 46 1015.0
20260507153401 59 31 5.0 9.0 0.00 0.05 0.05 52 1015.1
20260507151355 60 30 6.0 10.0 0.00 0.05 0.05 50 1015.0
20260507150356 60 335 5.0 9.0 0.00 0.05 0.05 50 1015.1
20260507144351 59 32 2.0 5.0 0.00 0.05 0.05 56 1015.3
20260507135351 59 41 3.0 6.0 0.00 0.05 0.05 57 1015.3
20260507134352 58 331 8.0 12.0 0.00 0.05 0.05 58 1015.4
20260507131351 59 346 7.0 12.0 0.00 0.05 0.05 56 1015.5
20260507130351 60 265 7.0 11.0 0.00 0.05 0.05 56 1015.5
20260507125352 60 299 8.0 14.0 0.00 0.05 0.05 61 1015.4
20260507124352 60 300 5.0 10.0 0.00 0.05 0.05 61 1015.5
20260507123351 59 258 5.0 9.0 0.00 0.05 0.05 54 1015.5
20260507122349 60 308 8.0 13.0 0.00 0.05 0.05 59 1015.5
20260507121347 60 310 5.0 14.0 0.00 0.05 0.05 60 1015.5
20260507120346 58 355 3.0 8.0 0.00 0.05 0.05 64 1015.5
20260507115347 58 348 8.0 14.0 0.00 0.05 0.05 61 1015.6
20260507114347 58 325 5.0 11.0 0.00 0.05 0.05 65 1015.6
20260507113347 58 326 7.0 13.0 0.00 0.05 0.05 61 1015.6
20260507112345 58 309 6.0 10.0 0.00 0.05 0.05 61 1015.6
20260507111353 58 315 7.0 15.0 0.00 0.05 0.05 65 1015.6
20260507110345 58 218 5.0 10.0 0.00 0.06 0.05 64 1015.7
20260507105345 56 288 3.0 10.0 0.00 0.07 0.05 65 1015.7
20260507104347 56 313 3.0 7.0 0.00 0.07 0.05 67 1015.8
20260507103345 56 202 4.0 9.0 0.00 0.08 0.05 69 1016.0
20260507102346 56 229 5.0 12.0 0.00 0.09 0.05 65 1016.0
20260507101340 56 260 4.0 10.0 0.00 0.11 0.05 70 1016.0
20260507094341 55 277 2.0 8.0 0.00 0.20 0.05 71 1016.1
20260507093340 54 270 3.0 6.0 0.00 0.22 0.05 73 1016.0
20260507092340 53 282 4.0 8.0 0.00 0.29 0.05 74 1016.1
20260507091342 53 247 2.0 8.0 0.00 0.29 0.05 75 1016.1
20260507090340 52 271 3.0 8.0 0.00 0.29 0.05 74 1016.2
20260507085340 51 313 4.0 8.0 0.00 0.29 0.05 76 1016.1
20260507083334 50 303 4.0 8.0 0.00 0.31 0.05 78 1016.0
20260507082334 50 255 5.0 8.0 0.00 0.31 0.05 78 1016.1
20260507081343 50 275 4.0 7.0 0.00 0.31 0.05 79 1016.1
20260507080332 50 288 5.0 8.0 0.00 0.32 0.05 79 1016.1
20260507075334 50 280 4.0 8.0 0.00 0.32 0.05 80 1016.1
20260507074333 49 273 6.0 9.0 0.00 0.32 0.05 79 1016.0
20260507073333 49 279 3.0 8.0 0.00 0.32 0.05 80 1016.0
20260507072335 49 169 3.0 5.0 0.00 0.32 0.05 81 1015.8
20260507071327 48 167 3.0 6.0 0.00 0.32 0.05 81 1015.8
20260507070327 48 169 1.0 4.0 0.00 0.32 0.05 83 1015.7
20260507065327 47 169 0.0 1.0 0.00 0.32 0.05 84 1015.7
20260507064327 47 169 0.0 3.0 0.00 0.32 0.05 84 1015.6
20260507063327 47 169 0.0 2.0 0.00 0.32 0.05 84 1015.6
20260507062328 47 200 0.0 1.0 0.00 0.32 0.05 84 1015.6
20260507061326 47 204 0.0 0.0 0.00 0.32 0.05 84 1015.4
20260507060324 46 205 0.0 1.0 0.00 0.32 0.05 85 1015.4
20260507054324 46 206 0.0 0.0 0.00 0.32 0.05 84 1015.3
20260507053320 46 206 0.0 0.0 0.00 0.32 0.05 84 1015.2
20260507052322 45 206 0.0 0.0 0.00 0.32 0.05 84 1015.0
20260507051322 45 206 0.0 0.0 0.00 0.32 0.05 84 1014.9
20260507050318 45 206 0.0 2.0 0.00 0.32 0.05 84 1014.9
20260507045320 45 206 1.0 2.0 0.00 0.32 0.05 84 1014.7
20260507044319 45 206 1.0 2.0 0.00 0.32 0.05 84 1014.7